Station 45207 - Fairport Harbor Buoy Image indicating link to RSS feed of recent meteorological observations for station 45207


Conditions at 45207 as of
(8:10 am EDT)
1210 GMT on 07/20/2024:
     

Click on the graph icon in the table below to see a time series plot of the last five days of that observation.

5-day plot - Wind Direction Wind Direction (WDIR):SSW ( 200 deg true )
5-day plot - Wind Speed Wind Speed (WSPD): 1.9 kts
5-day plot - Wind Gust Wind Gust (GST): 3.9 kts
5-day plot - Wave Height Wave Height (WVHT): 0.3 ft
5-day plot - Mean Wave Direction Mean Wave Direction (MWD):WSW ( 237 deg true )
5-day plot - Atmospheric Pressure Atmospheric Pressure (PRES):30.10 in
5-day plot - Air Temperature Air Temperature (ATMP): 66.4 °F
5-day plot - Water Temperature Water Temperature (WTMP): 75.9 °F
5-day plot - Dew Point Dew Point (DEWP): 54.9 °F
5-day plot - Wind Speed at 10 Meters Wind Speed at 10 meters (WSPD10M): 1.9 kts
5-day plot - Wind Speed at 20 Meters Wind Speed at 20 meters (WSPD20M): 3.9 kts
5-day plot -  Wind Speed, Wind Gust and Atmospheric Pressure Combined plot of Wind Speed, Gust, and Air Pressure
Previous observations
TIME
(EDT)
5-day plot - Wind Direction
WDIR
 
5-day plot - Wind Speed
WSPD
kts
5-day plot - Wind Gust
GST
kts
5-day plot - Wave Height
WVHT
ft
5-day plot - Dominant Wave Period
DPD
sec
5-day plot - Average Wave Period
APD
sec
5-day plot - Mean Wave Direction
MWD
 
5-day plot - Atmospheric Pressure
PRES
in
5-day plot - Pressure Tendency
PTDY
in
5-day plot - Air Temperature
ATMP
°F
5-day plot - Water Temperature
WTMP
°F
5-day plot - Dew Point
DEWP
°F
5-day plot - Salinity
SAL
psu
5-day plot - Visibility
VIS
nmi
5-day plot - Tide (above MLLW)
TIDE
ft
2024-07-20 07:50 am S 1.9 3.9 0.3--NNE30.09- 65.3 75.9 54.7---
2024-07-20 07:40 am S 1.9 3.9 0.3-- N30.09- 64.6 75.9 54.7---
2024-07-20 07:30 am S 1.9 3.9 0.3--ENE30.09- 64.0 75.9 54.7---
2024-07-20 07:20 am S 1.9 3.9 0.3--ENE30.09- 63.9 75.9 55.2---
2024-07-20 07:10 amSSE 1.9 3.9 0.3-- NW30.09- 63.5 75.9 54.7---
2024-07-20 06:50 am S 1.9 3.9 0.3--WNW30.09- 62.4- 53.8---
2024-07-20 06:40 am S 1.9 3.9 0.3--WNW30.09- 62.2- 53.6---
2024-07-20 06:30 am S 3.9 3.9 0.3-- W30.09- 61.9 75.9 54.0---
2024-07-20 06:20 am S 3.9 3.9 0.3--WNW30.09- 61.7 75.9 53.6---
2024-07-20 06:10 am S 3.9 5.8 0.3--WNW30.09- 61.7 75.9 53.4---
2024-07-20 05:50 am S 3.9 5.8 0.3-- W30.09- 61.7 75.9 54.3---
2024-07-20 05:40 am S 5.8 7.8 0.0-- W30.09- 62.1 75.9 53.8---
2024-07-20 05:30 am S 1.9 3.9 0.3-- W30.08- 63.1 75.9 54.7---
2024-07-20 05:20 am S 1.9 3.9 0.0-- W30.08- 63.0 75.9 54.0---
2024-07-20 05:10 am S 3.9 3.9 0.3--WNW30.09- 63.3 75.9 53.8---
2024-07-20 04:50 am S 5.8 7.8 0.3-- W30.09- 63.1 75.9 52.5---
2024-07-20 04:40 am S 5.8 5.8 0.3--WNW30.09- 63.5 76.1 53.2---
2024-07-20 04:30 am S 3.9 5.8 0.3--WNW30.08- 64.2 76.1 54.5---
2024-07-20 04:20 am S 1.9 3.9 0.3--WNW30.08- 64.9 76.1 54.0---
2024-07-20 04:10 am SW 1.9 3.9 0.3--WNW30.08- 65.3 76.1 54.5---
2024-07-20 03:50 am SW 1.9 3.9 0.0--WNW30.08- 64.8 76.1 55.9---
2024-07-20 03:40 amWSW 1.9 1.9 0.0-- NW30.08- 64.9 76.1 55.6---
2024-07-20 03:30 am SW 1.9 1.9 0.0--NNW30.08- 64.6 76.1 54.7---
2024-07-20 03:20 am SW 1.9 1.9 0.0-- W30.09- 64.0 76.1 53.6---
2024-07-20 03:10 am SW 1.9 3.9 0.0-- W30.09- 64.0 76.1 54.5---
2024-07-20 02:50 amSSE 1.9 1.9 0.3-- NW30.09- 63.9 76.1 53.8---
2024-07-20 02:40 amSSE 1.9 3.9 0.3-- N30.09- 63.5 76.1 54.0---
2024-07-20 02:30 amSSE 3.9 5.8 0.3--NNE30.09- 63.7 76.1 54.7---
2024-07-20 02:20 am S 5.8 5.8 0.3-- N30.09- 64.0 76.1 54.3---
2024-07-20 02:10 amSSE 3.9 7.8 0.3--NNE30.09- 65.1 76.1 54.3---
2024-07-20 01:50 am SE 3.9 5.8 0.3--NNW30.09- 65.3 76.3 55.6---
2024-07-20 01:40 am SE 3.9 5.8 0.3--NNW30.09- 64.8 76.3 54.9---
2024-07-20 01:30 amSSE 5.8 7.8 0.3-- N30.09- 65.1 76.3 55.4---
2024-07-20 01:20 amSSE 3.9 5.8 0.3--NNE30.09- 65.3 76.3 55.4---
2024-07-20 01:10 am SE 3.9 3.9 0.3--NNE30.09- 66.0 76.3 55.9---
2024-07-20 12:50 am SE 1.9 3.9 0.3-- NE30.10- 66.6 76.3 56.1---
2024-07-20 12:40 am SE 1.9 3.9 0.3-- N30.10- 66.7 76.5 56.1---
2024-07-20 12:30 am SE 1.9 3.9 0.3--NNE30.10- 66.2 76.5 56.1---
2024-07-20 12:20 am SE 3.9 3.9 0.3--NNE30.11- 66.2 76.5 55.8---
2024-07-20 12:10 am SE 3.9 5.8 0.3--NNE30.11- 66.4 76.6 55.9---
2024-07-19 11:50 pmSSE 3.9 5.8 0.3--NNE30.11- 66.9 76.6 56.1---
2024-07-19 11:40 pm SE 3.9 3.9 0.3--NNE30.11- 67.3 76.6 57.0---
2024-07-19 11:30 pmSSE 3.9 3.9 0.3--NNE30.11- 67.6 76.6 56.3---
2024-07-19 11:20 pmSSE 3.9 3.9 0.3-- N30.11- 68.0 76.6 55.6---
2024-07-19 11:10 pmSSE 1.9 3.9 0.3-- N30.11- 68.2 76.6 55.9---
2024-07-19 10:50 pm SE 3.9 3.9 0.3-- N30.11- 68.4 76.8 55.4---
2024-07-19 10:40 pm SE 3.9 3.9 0.3--NNW30.12- 68.7 76.8 55.6---
2024-07-19 10:30 pmSSE 3.9 5.8 0.3-- N30.12- 69.3 76.8 56.5---
2024-07-19 10:20 pmSSE 3.9 5.8 0.7-- N30.12- 69.4 77.0 56.1---
2024-07-19 10:10 pm SE 3.9 3.9 0.7-- N30.12- 69.6 77.0 56.3---
2024-07-19 09:50 pmSSE 3.9 5.8 0.7-- N30.11- 70.0 77.0 56.8---
2024-07-19 09:40 pm SE 3.9 3.9 0.7--NNW30.11- 70.3 77.2 55.9---
2024-07-19 09:30 pm SE 3.9 5.8 0.7-- N30.11- 70.3 77.2 56.3---
2024-07-19 09:20 pm SE 3.9 5.8 0.7--NNE30.11- 70.3 77.2 56.5---
2024-07-19 09:10 pm SE 3.9 5.8 0.7-- N30.11- 70.5 77.2 56.8---
2024-07-19 08:50 pm SE 3.9 5.8 0.7-- N30.11- 71.4 77.4 57.0---
2024-07-19 08:40 pmESE 5.8 7.8 0.7--NNW30.11- 71.6 77.4 56.8---
2024-07-19 08:30 pm E 5.8 9.7 0.7-- N30.11- 71.8 77.4 56.5---
2024-07-19 08:20 pm E 3.9 7.8 0.7--NNE30.11- 72.0 77.5 56.3---
2024-07-19 08:10 pm E 5.8 5.8 0.7--NNE30.11- 72.0 77.5 56.5---
2024-07-19 07:50 pm E 5.8 7.8 0.7--NNE30.11- 71.8 77.5 56.5---
2024-07-19 07:40 pm E 5.8 7.8 0.7-- N30.11- 71.8 77.5 56.1---
2024-07-19 07:30 pm E 5.8 7.8 0.7-- N30.11- 71.8 77.5 56.5---
2024-07-19 07:20 pm E 5.8 7.8 0.7--NNE30.12- 71.6 77.7 56.1---
2024-07-19 07:10 pm E 5.8 7.8 0.7-- NE30.11- 71.4 77.7 56.3---
2024-07-19 06:50 pm E 5.8 7.8 0.7--NNE30.11- 71.2 77.7 55.8---
2024-07-19 06:40 pmENE 5.8 9.7 0.7--NNE30.12- 71.2 77.7 55.9---
2024-07-19 06:30 pmENE 5.8 9.7 0.7-- N30.12- 71.1 77.7 55.0---
2024-07-19 06:20 pmENE 5.8 7.8 1.0 3-NNE30.12- 70.9 77.9 54.5---
2024-07-19 06:10 pmENE 5.8 7.8 1.0 3-NNE30.12- 70.7 77.9 55.4---
2024-07-19 05:50 pmENE 5.8 7.8 1.0 3- NE30.13- 70.5 77.9 55.0---
2024-07-19 05:40 pmENE 5.8 7.8 1.0 3- NE30.13- 70.3 77.9 55.8---
2024-07-19 05:30 pmENE 5.8 7.8 1.0 3- N30.13- 70.2 77.9 55.8---
2024-07-19 05:20 pmENE 5.8 7.8 1.0 3-NNE30.13- 70.0 77.7 55.6---
2024-07-19 05:10 pm NE 5.8 7.8 1.0 3-NNE30.13- 70.0 77.9 55.4---
2024-07-19 04:50 pm NE 5.8 7.8 1.0 3- NE30.14- 69.8 77.7 55.0---
2024-07-19 04:40 pm NE 3.9 5.8 1.0-- N30.14- 69.6 77.7 55.0---
2024-07-19 04:30 pmNNE 3.9 7.8 1.0 3-NNE30.14- 69.8 77.7 55.4---
2024-07-19 04:20 pm NE 3.9 7.8 1.0 3- NE30.15- 69.4 77.7 55.6---
2024-07-19 04:10 pm NE 5.8 7.8 1.0 3- NE30.15- 69.4 77.5 55.8---
2024-07-19 03:50 pm NE 5.8 9.7 1.0 3- NE30.15- 69.4 77.5 56.8---
2024-07-19 03:40 pmNNE 5.8 7.8 1.0 3- NE30.15- 69.4 77.5 57.2---
2024-07-19 03:30 pmNNE 5.8 7.8 1.0 3- NE30.16- 69.3 77.5 56.8---
2024-07-19 03:20 pm NE 5.8 9.7 1.0 3-NNE30.16- 69.3 77.4 57.6---
2024-07-19 03:10 pmNNE 5.8 9.7 1.0 3-NNE30.15- 69.3 77.5 57.7---
2024-07-19 02:50 pm NE 5.8 7.8 1.0 3- NE30.16- 69.1 77.4 57.0---
2024-07-19 02:40 pm NE 5.8 7.8 1.0 3-NNE30.16- 69.1 77.4 57.0---
2024-07-19 02:30 pmNNE 5.8 7.8 1.0 3-NNE30.16- 68.9 77.4 57.0---
2024-07-19 02:20 pmNNE 5.8 7.8 1.0 3- NE30.16- 69.1 77.4 57.7---
2024-07-19 02:10 pmNNE 5.8 9.7 1.0 3-NNE30.16- 68.9 77.4 57.7---
2024-07-19 01:50 pmNNE 5.8 9.7 1.0 3-NNE30.17- 68.9 77.4 57.6---
2024-07-19 01:40 pmNNE 5.8 9.7 1.0 3-NNE30.17- 68.9 77.2 57.2---
2024-07-19 01:30 pmNNE 5.8 9.7 1.0 3- NE30.17- 69.1 77.2 57.0---
2024-07-19 01:20 pmNNE 5.8 9.7 1.0 3-NNE30.17- 68.9 77.2 56.1---
2024-07-19 01:10 pmNNE 5.8 7.8 1.0 3- NE30.18- 68.9 77.2 55.8---
2024-07-19 12:50 pmNNE 5.8 7.8 1.0 3-NNE30.17- 68.9 77.0 55.4---
2024-07-19 12:40 pmNNE 5.8 7.8 1.0 3- NE30.17- 68.9 77.0 55.9---
2024-07-19 12:30 pmNNE 5.8 7.8 1.0 3- NE30.17- 68.9 77.0 56.7---
2024-07-19 12:20 pmNNE 5.8 7.8 1.0 3- NE30.17- 68.7 77.0 56.1---
2024-07-19 12:10 pm NE 5.8 7.8 0.7-- NE30.17- 68.7 76.8 56.5---
2024-07-19 11:50 am NE 3.9 7.8 1.0 3- NE30.17- 68.7 76.8 57.0---
2024-07-19 11:40 amNNE 3.9 7.8 1.0 3- NE30.17- 68.7 76.8 57.2---
2024-07-19 11:30 amNNE 3.9 7.8 1.0 3- NE30.17- 68.7 76.8 57.0---
2024-07-19 11:20 amNNE 3.9 5.8 1.0 3- NE30.17- 68.7 76.6 57.4---
2024-07-19 11:10 amNNE 3.9 5.8 0.7--NNE30.17- 68.5 76.6 57.2---
2024-07-19 10:50 am NE 3.9 5.8 1.0 3- NE30.17- 68.5 76.6 57.2---
2024-07-19 10:40 amNNE 3.9 5.8 1.0 3- NE30.17- 68.5 76.6 57.4---
2024-07-19 10:30 amNNE 3.9 5.8 1.0 3- NE30.17- 68.5 76.5 57.6---
2024-07-19 10:20 amNNE 3.9 5.8 1.0 3- NE30.17- 68.5 76.5 57.9---
2024-07-19 10:10 am NE 3.9 5.8 1.0 3- NE30.17- 68.5 76.5 57.6---
2024-07-19 09:50 am NE 3.9 7.8 1.0 3- NE30.17- 68.5 76.5 57.7---
2024-07-19 09:40 amNNE 3.9 7.8 1.0 3- NE30.17- 68.5 76.3 57.9---
2024-07-19 09:30 am NE 3.9 7.8 1.0 3- NE30.17- 68.7 76.3 58.5---
2024-07-19 09:20 am NE 3.9 5.8 1.0 3- NE30.17- 68.7 76.3 58.3---
2024-07-19 09:10 amENE 3.9 7.8 1.0 3- NE30.17- 68.7 76.3 58.1---
2024-07-19 08:50 amENE 1.9 5.8 1.0 4- NE30.16- 69.1 76.3 58.6---
2024-07-19 08:40 am N 1.9 3.9 1.0 3- NE30.16- 69.1 76.3 60.4---
2024-07-19 08:30 am- 0.0 1.9 1.0 4- N30.16- 68.2 76.3 60.6---
2024-07-19 08:20 amSSW 1.9 3.9 1.0 4-NNW30.16- 65.8 76.3 59.9---
2024-07-19 08:10 amSSE 3.9 5.8 1.0 3-NNW30.17- 64.9 76.3 59.5---
2024-07-19 07:50 amSSE 3.9 3.9 1.3 4-NNW30.16- 64.0 76.3 59.2---

Detailed Wave Summary
for 45207 as of (8:10 am EDT)
1210 GMT on 07/20/2024:

These wave data are displayed in rounded times.

     

Click on the graph icon in the table below to see a time series plot of the last five days of that observation.

5-day plot - Significant Wave Height Significant Wave Height (WVHT): 0.3 ft
Previous observations
TIME
(EDT)
5-day plot - Wave Height
WVHT
ft
5-day plot - Swell Height
SwH
ft
5-day plot - Swell Period
SwP
sec
5-day plot - Swell Direction
SwD
 
5-day plot - Wind Wave Height
WWH
ft
5-day plot - Wind Wave Period
WWP
sec
5-day plot - Wind Wave Direction
WWD
 
5-day plot - Wave Steepness
STEEPNESS
 
5-day plot - Average Wave Period
APD
sec
2024-07-20 07:50 am 0.3------ N/A-
2024-07-20 07:40 am 0.3------ N/A-
2024-07-20 07:30 am 0.3------ N/A-
2024-07-20 07:20 am 0.3------ N/A-
2024-07-20 07:10 am 0.3------ N/A-
2024-07-20 06:50 am 0.3------ N/A-
2024-07-20 06:30 am 0.3------ N/A-
2024-07-20 06:20 am 0.3------ N/A-
2024-07-20 06:10 am 0.3------ N/A-
2024-07-20 05:50 am 0.3------ N/A-
2024-07-20 05:40 am 0.0------ N/A-
2024-07-20 05:30 am 0.3------ N/A-
2024-07-20 05:20 am 0.0------ N/A-
2024-07-20 05:10 am 0.3------ N/A-
2024-07-20 04:50 am 0.3------ N/A-
2024-07-20 04:40 am 0.3------ N/A-
2024-07-20 04:30 am 0.3------ N/A-
2024-07-20 04:20 am 0.3------ N/A-
2024-07-20 04:10 am 0.3------ N/A-
2024-07-20 03:50 am 0.0------ N/A-
2024-07-20 03:40 am 0.0------ N/A-
2024-07-20 03:30 am 0.0------ N/A-
2024-07-20 03:20 am 0.0------ N/A-
2024-07-20 03:10 am 0.0------ N/A-
2024-07-20 02:50 am 0.3------ N/A-
2024-07-20 02:40 am 0.3------ N/A-
2024-07-20 02:30 am 0.3------ N/A-
2024-07-20 02:20 am 0.3------ N/A-
2024-07-20 02:10 am 0.3------ N/A-
2024-07-20 01:50 am 0.3------ N/A-
2024-07-20 01:40 am 0.3------ N/A-
2024-07-20 01:30 am 0.3------ N/A-
2024-07-20 01:20 am 0.3------ N/A-
2024-07-20 01:10 am 0.3------ N/A-
2024-07-20 12:50 am 0.3------ N/A-
2024-07-20 12:40 am 0.3------ N/A-
2024-07-20 12:30 am 0.3------ N/A-
2024-07-20 12:20 am 0.3------ N/A-
2024-07-20 12:10 am 0.3------ N/A-
2024-07-19 11:50 pm 0.3------ N/A-
2024-07-19 11:40 pm 0.3------ N/A-
2024-07-19 11:30 pm 0.3------ N/A-
2024-07-19 11:20 pm 0.3------ N/A-
2024-07-19 11:10 pm 0.3------ N/A-
2024-07-19 10:50 pm 0.3------ N/A-
2024-07-19 10:40 pm 0.3------ N/A-
2024-07-19 10:30 pm 0.3------ N/A-
2024-07-19 10:20 pm 0.7------ N/A-
2024-07-19 10:10 pm 0.7------ N/A-
2024-07-19 09:50 pm 0.7------ N/A-
2024-07-19 09:40 pm 0.7------ N/A-
2024-07-19 09:30 pm 0.7------ N/A-
2024-07-19 09:20 pm 0.7------ N/A-
2024-07-19 09:10 pm 0.7------ N/A-
2024-07-19 08:50 pm 0.7------ N/A-
2024-07-19 08:40 pm 0.7------ N/A-
2024-07-19 08:30 pm 0.7------ N/A-
2024-07-19 08:20 pm 0.7------ N/A-
2024-07-19 08:10 pm 0.7------ N/A-
2024-07-19 07:50 pm 0.7------ N/A-
2024-07-19 07:40 pm 0.7------ N/A-
2024-07-19 07:30 pm 0.7------ N/A-
2024-07-19 07:20 pm 0.7------ N/A-
2024-07-19 07:10 pm 0.7------ N/A-
2024-07-19 06:50 pm 0.7------ N/A-
2024-07-19 06:40 pm 0.7------ N/A-
2024-07-19 06:30 pm 0.7------ N/A-
2024-07-19 06:20 pm 1.0------ N/A-
2024-07-19 06:10 pm 0.7------ N/A-
2024-07-19 05:50 pm 1.0------ N/A-
2024-07-19 05:40 pm 1.0------ N/A-
2024-07-19 05:30 pm 1.0------ N/A-
2024-07-19 05:20 pm 1.0------ N/A-
2024-07-19 05:10 pm 1.0------ N/A-
2024-07-19 04:50 pm 1.0------ N/A-
2024-07-19 04:40 pm 1.0------ N/A-
2024-07-19 04:30 pm 1.0------ N/A-
2024-07-19 04:20 pm 1.0------ N/A-
2024-07-19 04:10 pm 1.0------ N/A-
2024-07-19 03:50 pm 1.0------ N/A-
2024-07-19 03:40 pm 1.0------ N/A-
2024-07-19 03:30 pm 1.0------ N/A-
2024-07-19 03:20 pm 1.0------ N/A-
2024-07-19 03:10 pm 1.0------ N/A-
2024-07-19 02:50 pm 1.0------ N/A-
2024-07-19 02:40 pm 1.0------ N/A-
2024-07-19 02:30 pm 1.0------ N/A-
2024-07-19 02:20 pm 1.0------ N/A-
2024-07-19 02:10 pm 1.0------ N/A-
2024-07-19 01:50 pm 1.0------ N/A-
2024-07-19 01:40 pm 1.0------ N/A-
2024-07-19 01:30 pm 1.0------ N/A-
2024-07-19 01:20 pm 1.0------ N/A-
2024-07-19 01:10 pm 1.0------ N/A-
2024-07-19 12:50 pm 1.0------ N/A-
2024-07-19 12:40 pm 1.0------ N/A-
2024-07-19 12:30 pm 1.0------ N/A-
2024-07-19 12:20 pm 1.0------ N/A-
2024-07-19 12:10 pm 0.7------ N/A-
2024-07-19 11:50 am 1.0------ N/A-
2024-07-19 11:40 am 1.0------ N/A-
2024-07-19 11:30 am 1.0------ N/A-
2024-07-19 11:20 am 1.0------ N/A-
2024-07-19 11:10 am 0.7------ N/A-
2024-07-19 10:50 am 1.0------ N/A-
2024-07-19 10:40 am 1.0------ N/A-
2024-07-19 10:30 am 1.0------ N/A-
2024-07-19 10:20 am 1.0------ N/A-
2024-07-19 10:10 am 1.0------ N/A-
2024-07-19 09:50 am 1.0------ N/A-
2024-07-19 09:40 am 1.0------ N/A-
2024-07-19 09:30 am 1.0------ N/A-
2024-07-19 09:20 am 1.0------ N/A-
2024-07-19 09:10 am 1.0------ N/A-
2024-07-19 08:50 am 1.0------ N/A-
2024-07-19 08:40 am 1.0------ N/A-
2024-07-19 08:30 am 1.0------ N/A-
2024-07-19 08:20 am 1.0------ N/A-
2024-07-19 08:10 am 1.0------ N/A-
2024-07-19 07:50 am 1.3------ N/A-